TimeMDT,TemperatureF,Dew PointF,Humidity,Sea Level PressureIn,VisibilityMPH,Wind Direction,Wind SpeedMPH,Gust SpeedMPH,PrecipitationIn,Events,Conditions,WindDirDegrees,DateUTC
12:53 AM,61.0,55.0,81,30.06,10.0,NE,6.9,-,N/A,,Clear,40,2013-07-25 06:53:00
1:53 AM,61.0,55.9,83,30.07,10.0,NE,8.1,-,N/A,,Clear,40,2013-07-25 07:53:00
2:53 AM,57.9,53.1,84,30.08,10.0,North,6.9,-,N/A,,Clear,10,2013-07-25 08:53:00
3:53 AM,57.9,53.1,84,30.10,10.0,NE,3.5,-,N/A,,Clear,40,2013-07-25 09:53:00
4:53 AM,57.0,54.0,89,30.10,10.0,NNE,5.8,-,N/A,,Clear,30,2013-07-25 10:53:00
5:53 AM,55.9,52.0,87,30.12,10.0,NNE,3.5,-,N/A,,Clear,30,2013-07-25 11:53:00
6:53 AM,55.9,53.1,90,30.13,10.0,Calm,Calm,-,N/A,,Clear,0,2013-07-25 12:53:00
7:53 AM,60.1,53.1,78,30.14,10.0,NNW,3.5,-,N/A,,Clear,340,2013-07-25 13:53:00
8:53 AM,64.0,54.0,70,30.16,10.0,Variable,5.8,-,N/A,,Clear,0,2013-07-25 14:53:00
9:53 AM,68.0,54.0,61,30.15,10.0,Variable,3.5,-,N/A,,Clear,0,2013-07-25 15:53:00
10:53 AM,72.0,55.0,55,30.13,10.0,ENE,5.8,-,N/A,,Clear,70,2013-07-25 16:53:00
11:53 AM,75.0,54.0,48,30.12,10.0,East,9.2,-,N/A,,Clear,90,2013-07-25 17:53:00
12:53 PM,79.0,54.0,42,30.11,10.0,NE,11.5,17.3,N/A,,Clear,50,2013-07-25 18:53:00
1:53 PM,81.0,52.0,36,30.08,10.0,ENE,10.4,-,N/A,,Clear,60,2013-07-25 19:53:00
2:53 PM,82.9,51.1,33,30.06,10.0,NE,13.8,20.7,N/A,,Clear,40,2013-07-25 20:53:00
3:53 PM,82.9,50.0,32,30.05,10.0,Variable,4.6,-,N/A,,Clear,0,2013-07-25 21:53:00
4:53 PM,84.9,48.9,29,30.04,10.0,ENE,9.2,-,N/A,,Clear,60,2013-07-25 22:53:00
5:53 PM,84.0,48.9,29,30.03,10.0,East,10.4,-,N/A,,Clear,80,2013-07-25 23:53:00
6:53 PM,82.0,51.1,34,30.03,10.0,NE,17.3,24.2,N/A,,Clear,50,2013-07-26 00:53:00
7:53 PM,79.0,53.1,40,30.03,10.0,ENE,15.0,-,N/A,,Clear,70,2013-07-26 01:53:00
8:53 PM,75.0,53.1,46,30.04,10.0,ENE,15.0,24.2,N/A,,Clear,60,2013-07-26 02:53:00
9:53 PM,71.1,55.0,57,30.07,10.0,East,16.1,-,N/A,,Clear,90,2013-07-26 03:53:00
10:53 PM,69.1,53.1,57,30.07,10.0,East,18.4,25.3,N/A,,Clear,100,2013-07-26 04:53:00
11:53 PM,66.0,52.0,60,30.06,10.0,ESE,19.6,-,N/A,,Clear,110,2013-07-26 05:53:00